TimeCST,TemperatureF,Dew PointF,Humidity,Sea Level PressureIn,VisibilityMPH,Wind Direction,Wind SpeedMPH,Gust SpeedMPH,PrecipitationIn,Events,Conditions,WindDirDegrees,DateUTC
12:15 AM,-2.2,-5.8,85,30.30,10.0,WNW,8.1,-,N/A,,Clear,290,2012-11-26 06:15:00
12:35 AM,-2.2,-5.8,85,30.30,10.0,WNW,8.1,-,N/A,,Clear,290,2012-11-26 06:35:00
12:55 AM,-2.2,-5.8,85,30.30,10.0,WNW,8.1,-,N/A,,Clear,290,2012-11-26 06:55:00
1:15 AM,-2.2,-7.6,78,30.31,10.0,WNW,6.9,-,N/A,,Clear,290,2012-11-26 07:15:00
1:35 AM,-2.2,-7.6,78,30.31,10.0,West,4.6,-,N/A,,Clear,280,2012-11-26 07:35:00
1:55 AM,-2.2,-7.6,78,30.31,10.0,West,8.1,-,N/A,,Clear,270,2012-11-26 07:55:00
2:15 AM,-4.0,-7.6,85,30.32,10.0,West,8.1,-,N/A,,Clear,270,2012-11-26 08:15:00
2:35 AM,-4.0,-7.6,85,30.32,10.0,West,5.8,-,N/A,,Clear,280,2012-11-26 08:35:00
2:55 AM,-4.0,-7.6,85,30.33,10.0,West,6.9,-,N/A,,Clear,260,2012-11-26 08:55:00
3:15 AM,-4.0,-7.6,85,30.33,10.0,WSW,4.6,-,N/A,,Clear,250,2012-11-26 09:15:00
3:35 AM,-4.0,-7.6,85,30.33,10.0,West,4.6,-,N/A,,Clear,270,2012-11-26 09:35:00
3:55 AM,-4.0,-9.4,78,30.33,10.0,West,6.9,-,N/A,,Clear,280,2012-11-26 09:55:00
4:15 AM,-4.0,-7.6,85,30.33,10.0,West,5.8,-,N/A,,Clear,260,2012-11-26 10:15:00
4:35 AM,-4.0,-9.4,78,30.34,10.0,West,6.9,-,N/A,,Clear,260,2012-11-26 10:35:00
4:55 AM,-4.0,-9.4,78,30.34,10.0,West,6.9,-,N/A,,Clear,280,2012-11-26 10:55:00
5:15 AM,-4.0,-7.6,85,30.33,10.0,West,6.9,-,N/A,,Clear,270,2012-11-26 11:15:00
5:35 AM,-4.0,-9.4,78,30.33,10.0,West,5.8,-,N/A,,Clear,280,2012-11-26 11:35:00
5:55 AM,-4.0,-9.4,78,30.32,10.0,West,5.8,-,N/A,,Clear,260,2012-11-26 11:55:00
6:15 AM,-4.0,-7.6,85,30.32,10.0,WSW,6.9,-,N/A,,Clear,240,2012-11-26 12:15:00
6:35 AM,-4.0,-7.6,85,30.32,10.0,WSW,5.8,-,N/A,,Clear,240,2012-11-26 12:35:00
6:55 AM,-2.2,-7.6,78,30.32,10.0,SW,4.6,-,N/A,,Clear,220,2012-11-26 12:55:00
7:15 AM,-4.0,-7.6,85,30.32,10.0,SSW,4.6,-,N/A,,Clear,200,2012-11-26 13:15:00
7:35 AM,-2.2,-7.6,78,30.32,10.0,SSW,5.8,-,N/A,,Clear,210,2012-11-26 13:35:00
7:55 AM,-2.2,-7.6,78,30.33,10.0,WSW,6.9,-,N/A,,Clear,240,2012-11-26 13:55:00
8:15 AM,-4.0,-7.6,85,30.33,10.0,WSW,6.9,-,N/A,,Clear,250,2012-11-26 14:15:00
8:35 AM,-2.2,-5.8,85,30.32,10.0,South,3.5,-,N/A,,Mostly Cloudy,190,2012-11-26 14:35:00
8:55 AM,-0.4,-4.0,85,30.30,10.0,South,5.8,-,N/A,,Partly Cloudy,170,2012-11-26 14:55:00
9:15 AM,1.4,-2.2,85,30.28,10.0,South,8.1,-,N/A,,Mostly Cloudy,190,2012-11-26 15:15:00
9:35 AM,3.2,-0.4,85,30.28,10.0,SW,8.1,-,N/A,,Overcast,220,2012-11-26 15:35:00
9:55 AM,6.8,1.4,79,30.28,10.0,SW,6.9,-,N/A,,Mostly Cloudy,220,2012-11-26 15:55:00
10:15 AM,6.8,1.4,79,30.28,10.0,SW,6.9,-,N/A,,Overcast,220,2012-11-26 16:15:00
10:35 AM,8.6,3.2,79,30.26,10.0,SSW,8.1,-,N/A,,Overcast,200,2012-11-26 16:35:00
10:55 AM,10.4,5.0,79,30.26,10.0,SSW,11.5,-,N/A,,Overcast,210,2012-11-26 16:55:00
11:15 AM,10.4,6.8,85,30.25,10.0,SSW,9.2,-,N/A,,Mostly Cloudy,210,2012-11-26 17:15:00
11:35 AM,14.0,8.6,79,30.25,10.0,SW,11.5,-,N/A,,Partly Cloudy,220,2012-11-26 17:35:00
11:55 AM,15.8,8.6,73,30.24,4.0,SW,10.4,-,N/A,Snow,Light Snow,220,2012-11-26 17:55:00
12:15 PM,15.8,12.2,86,30.22,-9999.0,SW,11.5,-,0.01,Snow,Heavy Snow,220,2012-11-26 18:15:00
12:35 PM,17.6,14.0,86,30.21,7.0,SSW,11.5,-,0.02,Snow,Light Snow,210,2012-11-26 18:35:00
12:55 PM,19.4,14.0,80,30.20,10.0,SW,13.8,-,0.02,,Overcast,230,2012-11-26 18:55:00
1:15 PM,19.4,15.8,86,30.19,10.0,SW,12.7,-,N/A,,Mostly Cloudy,230,2012-11-26 19:15:00
1:35 PM,21.2,15.8,80,30.18,10.0,SW,12.7,-,N/A,,Mostly Cloudy,230,2012-11-26 19:35:00
1:55 PM,23.0,17.6,80,30.17,10.0,SW,11.5,-,N/A,,Mostly Cloudy,230,2012-11-26 19:55:00
2:15 PM,24.8,17.6,74,30.17,10.0,WSW,15.0,-,N/A,,Scattered Clouds,240,2012-11-26 20:15:00
2:35 PM,26.6,19.4,74,30.16,10.0,WSW,13.8,-,N/A,,Scattered Clouds,250,2012-11-26 20:35:00
2:55 PM,26.6,21.2,80,30.16,8.0,WSW,15.0,-,N/A,Snow,Light Snow,250,2012-11-26 20:55:00
3:15 PM,26.6,23.0,86,30.15,7.0,WSW,11.5,-,N/A,Snow,Light Snow,250,2012-11-26 21:15:00
3:35 PM,26.6,23.0,86,30.15,10.0,WSW,8.1,-,N/A,Snow,Light Snow,250,2012-11-26 21:35:00
3:55 PM,26.6,23.0,86,30.15,10.0,WSW,12.7,-,N/A,,Overcast,250,2012-11-26 21:55:00
4:15 PM,26.6,23.0,86,30.14,10.0,WSW,12.7,-,N/A,,Overcast,250,2012-11-26 22:15:00
4:35 PM,26.6,24.8,93,30.14,10.0,WSW,11.5,-,N/A,,Overcast,240,2012-11-26 22:35:00
4:55 PM,26.6,23.0,86,30.13,9.0,WSW,8.1,-,N/A,,Mostly Cloudy,250,2012-11-26 22:55:00
5:15 PM,26.6,23.0,86,30.13,10.0,SW,8.1,-,N/A,,Overcast,230,2012-11-26 23:15:00
5:35 PM,26.6,23.0,86,30.13,10.0,WSW,8.1,-,N/A,,Overcast,240,2012-11-26 23:35:00
5:55 PM,24.8,21.2,86,30.13,10.0,WSW,8.1,-,N/A,,Overcast,240,2012-11-26 23:55:00
6:15 PM,24.8,21.2,86,30.13,10.0,SW,8.1,-,N/A,,Overcast,230,2012-11-27 00:15:00
6:35 PM,24.8,21.2,86,30.12,10.0,SW,8.1,-,N/A,,Overcast,230,2012-11-27 00:35:00
6:55 PM,23.0,19.4,86,30.12,10.0,WSW,8.1,-,N/A,,Overcast,250,2012-11-27 00:55:00
7:15 PM,19.4,17.6,93,30.12,10.0,WSW,8.1,-,N/A,,Scattered Clouds,250,2012-11-27 01:15:00
7:35 PM,19.4,17.6,93,30.12,10.0,WSW,9.2,-,N/A,,Clear,250,2012-11-27 01:35:00
7:55 PM,19.4,17.6,93,30.11,10.0,West,8.1,-,N/A,,Clear,270,2012-11-27 01:55:00
8:15 PM,19.4,17.6,93,30.11,10.0,WSW,8.1,-,N/A,,Clear,250,2012-11-27 02:15:00
8:35 PM,17.6,15.8,93,30.11,10.0,WSW,8.1,-,N/A,,Clear,250,2012-11-27 02:35:00
8:55 PM,19.4,17.6,93,30.11,10.0,WSW,8.1,-,N/A,,Clear,240,2012-11-27 02:55:00
9:15 PM,19.4,17.6,93,30.11,10.0,WSW,8.1,-,N/A,,Clear,240,2012-11-27 03:15:00
9:35 PM,19.4,17.6,93,30.10,10.0,WSW,8.1,-,N/A,,Scattered Clouds,250,2012-11-27 03:35:00
9:55 PM,19.4,17.6,93,30.10,10.0,West,9.2,-,N/A,,Scattered Clouds,260,2012-11-27 03:55:00
10:15 PM,19.4,17.6,93,30.10,10.0,West,9.2,-,N/A,,Mostly Cloudy,260,2012-11-27 04:15:00
10:35 PM,23.0,21.2,93,30.10,10.0,WSW,9.2,-,N/A,,Overcast,250,2012-11-27 04:35:00
10:55 PM,24.8,23.0,93,30.10,10.0,West,9.2,-,N/A,,Overcast,270,2012-11-27 04:55:00
11:15 PM,24.8,21.2,86,30.09,10.0,West,8.1,-,N/A,,Overcast,260,2012-11-27 05:15:00
11:35 PM,23.0,21.2,93,30.10,10.0,West,8.1,-,N/A,,Overcast,260,2012-11-27 05:35:00
11:55 PM,23.0,21.2,93,30.10,10.0,WNW,6.9,-,N/A,,Overcast,290,2012-11-27 05:55:00